| time (UTC) | temp F | wind direction | speed MPH | gust MPH | rain 1hr in | rain 24hr in | rain mn in | humidity % | barometer mb |
| 20260906064532 | 71 | 156 | 3.0 | 11.0 | 0.00 | 0.00 | 0.00 | 30 | 1018.1 |
| 20260906063532 | 71 | 152 | 5.0 | 8.0 | 0.00 | 0.00 | 0.00 | 30 | 1018.0 |
| 20260906062530 | 70 | 123 | 2.0 | 7.0 | 0.00 | 0.00 | 0.00 | 30 | 1018.0 |
| 20260906061531 | 70 | 120 | 4.0 | 7.0 | 0.00 | 0.00 | 0.00 | 30 | 1017.8 |
| 20260906060530 | 70 | 128 | 3.0 | 8.0 | 0.00 | 0.00 | 0.00 | 29 | 1017.9 |
| 20260906055533 | 71 | 123 | 3.0 | 10.0 | 0.00 | 0.00 | 0.00 | 28 | 1017.9 |
| 20260906054530 | 72 | 127 | 4.0 | 8.0 | 0.00 | 0.00 | 0.00 | 27 | 1017.7 |
| 20260906052531 | 72 | 153 | 5.0 | 12.0 | 0.00 | 0.00 | 0.00 | 27 | 1017.8 |
| 20260906051532 | 72 | 164 | 3.0 | 9.0 | 0.00 | 0.00 | 0.00 | 27 | 1017.7 |
| 20260906050530 | 72 | 167 | 8.0 | 14.0 | 0.00 | 0.00 | 0.00 | 27 | 1017.8 |
| 20260906045531 | 72 | 143 | 5.0 | 9.0 | 0.00 | 0.00 | 0.00 | 27 | 1017.8 |
| 20260906044531 | 73 | 171 | 6.0 | 10.0 | 0.00 | 0.00 | 0.00 | 27 | 1017.9 |
| 20260906043531 | 73 | 147 | 2.0 | 8.0 | 0.00 | 0.00 | 0.00 | 27 | 1017.8 |
| 20260906042531 | 73 | 156 | 5.0 | 10.0 | 0.00 | 0.00 | 0.00 | 27 | 1017.8 |
| 20260906041531 | 73 | 148 | 6.0 | 10.0 | 0.00 | 0.00 | 0.00 | 27 | 1017.8 |
| 20260906040530 | 72 | 150 | 5.0 | 9.0 | 0.00 | 0.00 | 0.00 | 28 | 1017.7 |
| 20260906035531 | 73 | 131 | 3.0 | 8.0 | 0.00 | 0.00 | 0.00 | 28 | 1017.6 |
| 20260906034531 | 73 | 112 | 2.0 | 13.0 | 0.00 | 0.00 | 0.00 | 28 | 1017.6 |
| 20260906033532 | 74 | 170 | 6.0 | 11.0 | 0.00 | 0.00 | 0.00 | 27 | 1017.3 |
| 20260906031534 | 74 | 206 | 6.0 | 18.0 | 0.00 | 0.00 | 0.00 | 27 | 1017.1 |
| 20260906030531 | 74 | 155 | 4.0 | 15.0 | 0.00 | 0.00 | 0.00 | 27 | 1017.0 |
| 20260906025531 | 75 | 136 | 6.0 | 16.0 | 0.00 | 0.00 | 0.00 | 27 | 1017.0 |
| 20260906024531 | 75 | 140 | 9.0 | 18.0 | 0.00 | 0.00 | 0.00 | 26 | 1016.9 |
| 20260906023532 | 75 | 193 | 7.0 | 21.0 | 0.00 | 0.00 | 0.00 | 26 | 1016.8 |
| 20260906021531 | 75 | 132 | 5.0 | 11.0 | 0.00 | 0.00 | 0.00 | 25 | 1016.5 |
| 20260906020533 | 76 | 109 | 6.0 | 12.0 | 0.00 | 0.00 | 0.00 | 24 | 1016.6 |
| 20260906015534 | 76 | 140 | 9.0 | 14.0 | 0.00 | 0.00 | 0.00 | 23 | 1016.6 |
| 20260906014531 | 77 | 112 | 7.0 | 20.0 | 0.00 | 0.00 | 0.00 | 22 | 1016.6 |
| 20260906013532 | 77 | 149 | 14.0 | 25.0 | 0.00 | 0.00 | 0.00 | 21 | 1016.6 |
| 20260906012533 | 77 | 153 | 9.0 | 19.0 | 0.00 | 0.00 | 0.00 | 21 | 1016.6 |
| 20260906011532 | 77 | 158 | 16.0 | 27.0 | 0.00 | 0.00 | 0.00 | 21 | 1016.7 |
| 20260906010531 | 77 | 125 | 5.0 | 27.0 | 0.00 | 0.00 | 0.00 | 20 | 1016.6 |
| 20260906005531 | 78 | 158 | 17.0 | 33.0 | 0.00 | 0.00 | 0.00 | 20 | 1016.6 |
| 20260906004533 | 78 | 155 | 16.0 | 30.0 | 0.00 | 0.00 | 0.00 | 20 | 1016.6 |
| 20260906003534 | 78 | 154 | 13.0 | 35.0 | 0.00 | 0.00 | 0.00 | 19 | 1016.5 |
| 20260906002531 | 79 | 160 | 15.0 | 32.0 | 0.00 | 0.00 | 0.00 | 19 | 1015.7 |
| 20260906001532 | 79 | 158 | 18.0 | 37.0 | 0.00 | 0.00 | 0.00 | 18 | 1015.6 |
| 20260906000533 | 79 | 142 | 17.0 | 34.0 | 0.00 | 0.00 | 0.00 | 18 | 1015.7 |
| 20260905235535 | 80 | 142 | 16.0 | 31.0 | 0.00 | 0.00 | 0.00 | 18 | 1015.8 |
| 20260905234533 | 80 | 142 | 21.0 | 33.0 | 0.00 | 0.00 | 0.00 | 18 | 1015.5 |
| 20260905233533 | 79 | 135 | 13.0 | 30.0 | 0.00 | 0.00 | 0.00 | 18 | 1015.6 |
| 20260905232531 | 80 | 136 | 20.0 | 32.0 | 0.00 | 0.00 | 0.00 | 16 | 1015.7 |
| 20260905231532 | 82 | 138 | 12.0 | 24.0 | 0.00 | 0.00 | 0.00 | 14 | 1015.6 |
| 20260905230532 | 81 | 146 | 9.0 | 23.0 | 0.00 | 0.00 | 0.00 | 15 | 1015.8 |
| 20260905225531 | 81 | 207 | 7.0 | 36.0 | 0.00 | 0.00 | 0.00 | 15 | 1015.8 |
| 20260905224532 | 81 | 133 | 10.0 | 31.0 | 0.00 | 0.00 | 0.00 | 15 | 1016.0 |
| 20260905223531 | 80 | 144 | 22.0 | 33.0 | 0.00 | 0.00 | 0.00 | 15 | 1015.9 |
| 20260905222531 | 80 | 159 | 17.0 | 27.0 | 0.00 | 0.00 | 0.00 | 14 | 1016.0 |
| 20260905221532 | 80 | 154 | 21.0 | 37.0 | 0.00 | 0.00 | 0.00 | 14 | 1016.1 |
| 20260905220532 | 80 | 132 | 16.0 | 39.0 | 0.00 | 0.00 | 0.00 | 14 | 1016.0 |
| 20260905215531 | 80 | 130 | 16.0 | 34.0 | 0.00 | 0.00 | 0.00 | 15 | 1016.2 |
| 20260905214534 | 80 | 142 | 20.0 | 36.0 | 0.00 | 0.00 | 0.00 | 14 | 1016.3 |
| 20260905213531 | 80 | 142 | 18.0 | 38.0 | 0.00 | 0.00 | 0.00 | 13 | 1016.5 |
| 20260905212531 | 79 | 136 | 15.0 | 38.0 | 0.00 | 0.00 | 0.00 | 14 | 1016.4 |
| 20260905211531 | 80 | 130 | 14.0 | 27.0 | 0.00 | 0.00 | 0.00 | 14 | 1016.6 |
| 20260905210532 | 80 | 135 | 19.0 | 35.0 | 0.00 | 0.00 | 0.00 | 13 | 1016.6 |
| 20260905205532 | 80 | 141 | 14.0 | 32.0 | 0.00 | 0.00 | 0.00 | 15 | 1016.7 |
| 20260905204532 | 80 | 145 | 20.0 | 30.0 | 0.00 | 0.00 | 0.00 | 14 | 1016.8 |
| 20260905203532 | 79 | 187 | 21.0 | 38.0 | 0.00 | 0.00 | 0.00 | 15 | 1016.8 |
| 20260905202531 | 79 | 139 | 26.0 | 39.0 | 0.00 | 0.00 | 0.00 | 16 | 1016.8 |
| 20260905201531 | 78 | 146 | 17.0 | 39.0 | 0.00 | 0.00 | 0.00 | 16 | 1016.6 |
| 20260905200533 | 78 | 152 | 24.0 | 36.0 | 0.00 | 0.00 | 0.00 | 18 | 1016.8 |
| 20260905195532 | 78 | 159 | 20.0 | 44.0 | 0.00 | 0.00 | 0.00 | 20 | 1017.1 |
| 20260905194532 | 77 | 138 | 17.0 | 44.0 | 0.00 | 0.00 | 0.00 | 20 | 1017.1 |
| 20260905193532 | 78 | 143 | 19.0 | 40.0 | 0.00 | 0.00 | 0.00 | 20 | 1017.2 |
| 20260905192532 | 79 | 140 | 19.0 | 29.0 | 0.00 | 0.00 | 0.00 | 19 | 1017.4 |
| 20260905191532 | 77 | 142 | 16.0 | 39.0 | 0.00 | 0.00 | 0.00 | 19 | 1017.6 |
| 20260905190533 | 77 | 137 | 15.0 | 35.0 | 0.00 | 0.00 | 0.00 | 18 | 1017.6 |
| 20260905185532 | 77 | 127 | 16.0 | 31.0 | 0.00 | 0.00 | 0.00 | 19 | 1017.7 |
| 20260905184532 | 76 | 162 | 12.0 | 32.0 | 0.00 | 0.00 | 0.00 | 19 | 1017.7 |
| 20260905183532 | 75 | 134 | 22.0 | 36.0 | 0.00 | 0.00 | 0.00 | 20 | 1017.8 |
| 20260905181532 | 76 | 141 | 18.0 | 33.0 | 0.00 | 0.00 | 0.00 | 20 | 1018.0 |
| 20260905180532 | 75 | 146 | 16.0 | 37.0 | 0.00 | 0.00 | 0.00 | 21 | 1018.1 |
| 20260905175532 | 74 | 152 | 21.0 | 34.0 | 0.00 | 0.00 | 0.00 | 21 | 1018.1 |
| 20260905174533 | 74 | 141 | 22.0 | 38.0 | 0.00 | 0.00 | 0.00 | 21 | 1018.1 |
| 20260905172532 | 74 | 182 | 21.0 | 36.0 | 0.00 | 0.00 | 0.00 | 1018.2 | |
| 20260905171532 | 74 | 134 | 18.0 | 33.0 | 0.00 | 0.00 | 0.00 | 20 | 1018.0 |
| 20260905170532 | 74 | 161 | 15.0 | 28.0 | 0.00 | 0.00 | 0.00 | 21 | 1018.1 |
| 20260905165533 | 73 | 142 | 22.0 | 34.0 | 0.00 | 0.00 | 0.00 | 20 | 1018.0 |
| 20260905163533 | 74 | 134 | 16.0 | 32.0 | 0.00 | 0.00 | 0.00 | 19 | 1017.9 |
| 20260905160532 | 73 | 134 | 18.0 | 27.0 | 0.00 | 0.00 | 0.00 | 19 | 1017.7 |
| 20260905155532 | 73 | 124 | 18.0 | 29.0 | 0.00 | 0.00 | 0.00 | 19 | 1017.6 |
| 20260905154532 | 73 | 122 | 18.0 | 27.0 | 0.00 | 0.00 | 0.00 | 19 | 1017.7 |
| 20260905153533 | 72 | 127 | 18.0 | 24.0 | 0.00 | 0.00 | 0.00 | 19 | 1017.8 |
| 20260905150533 | 71 | 120 | 14.0 | 19.0 | 0.00 | 0.00 | 0.00 | 20 | 1017.9 |
| 20260905144533 | 69 | 125 | 10.0 | 15.0 | 0.00 | 0.00 | 0.00 | 21 | 1017.9 |
| 20260905143533 | 68 | 122 | 10.0 | 14.0 | 0.00 | 0.00 | 0.00 | 21 | 1017.9 |
| 20260905142532 | 68 | 111 | 7.0 | 11.0 | 0.00 | 0.00 | 0.00 | 21 | 1017.8 |
| 20260905141532 | 67 | 98 | 7.0 | 14.0 | 0.00 | 0.00 | 0.00 | 22 | 1017.7 |
| 20260905140533 | 67 | 126 | 6.0 | 11.0 | 0.00 | 0.00 | 0.00 | 22 | 1017.6 |
| 20260905135533 | 66 | 118 | 4.0 | 10.0 | 0.00 | 0.00 | 0.00 | 22 | 1017.5 |
| 20260905134532 | 65 | 118 | 6.0 | 13.0 | 0.00 | 0.00 | 0.00 | 23 | 1017.4 |
| 20260905133532 | 64 | 156 | 3.0 | 11.0 | 0.00 | 0.00 | 0.00 | 23 | 1017.3 |
| 20260905132533 | 63 | 97 | 1.0 | 9.0 | 0.00 | 0.00 | 0.00 | 23 | 1017.1 |
| 20260905131533 | 63 | 94 | 4.0 | 9.0 | 0.00 | 0.00 | 0.00 | 23 | 1017.1 |
| 20260905130532 | 64 | 133 | 5.0 | 12.0 | 0.00 | 0.00 | 0.00 | 23 | 1017.0 |
| 20260905125533 | 64 | 134 | 4.0 | 14.0 | 0.00 | 0.00 | 0.00 | 23 | 1017.0 |
| 20260905124533 | 64 | 141 | 10.0 | 18.0 | 0.00 | 0.00 | 0.00 | 23 | 1016.8 |
| 20260905123533 | 65 | 131 | 10.0 | 23.0 | 0.00 | 0.00 | 0.00 | 23 | 1016.7 |
| 20260905122533 | 64 | 136 | 10.0 | 20.0 | 0.00 | 0.00 | 0.00 | 23 | 1016.7 |
| 20260905121534 | 64 | 140 | 12.0 | 18.0 | 0.00 | 0.00 | 0.00 | 23 | 1016.8 |
| 20260905120533 | 64 | 140 | 11.0 | 16.0 | 0.00 | 0.00 | 0.00 | 23 | 1016.9 |
| 20260905115533 | 64 | 121 | 5.0 | 10.0 | 0.00 | 0.00 | 0.00 | 23 | 1016.9 |
| 20260905114533 | 64 | 135 | 5.0 | 10.0 | 0.00 | 0.00 | 0.00 | 23 | 1017.0 |
| 20260905113534 | 64 | 125 | 3.0 | 10.0 | 0.00 | 0.00 | 0.00 | 22 | 1016.9 |
| 20260905112533 | 65 | 101 | 3.0 | 14.0 | 0.00 | 0.00 | 0.00 | 21 | 1016.9 |
| 20260905111534 | 65 | 108 | 5.0 | 14.0 | 0.00 | 0.00 | 0.00 | 22 | 1016.9 |
| 20260905110533 | 64 | 158 | 3.0 | 7.0 | 0.00 | 0.00 | 0.00 | 22 | 1016.8 |
| 20260905105534 | 65 | 135 | 5.0 | 12.0 | 0.00 | 0.00 | 0.00 | 21 | 1016.9 |
| 20260905104534 | 66 | 147 | 5.0 | 15.0 | 0.00 | 0.00 | 0.00 | 21 | 1016.8 |
| 20260905103533 | 66 | 158 | 9.0 | 18.0 | 0.00 | 0.00 | 0.00 | 21 | 1016.9 |
| 20260905102534 | 66 | 157 | 7.0 | 16.0 | 0.00 | 0.00 | 0.00 | 20 | 1016.9 |
| 20260905101533 | 66 | 163 | 10.0 | 21.0 | 0.00 | 0.00 | 0.00 | 20 | 1016.8 |
| 20260905100533 | 67 | 138 | 10.0 | 21.0 | 0.00 | 0.00 | 0.00 | 19 | 1016.7 |
| 20260905095533 | 67 | 174 | 12.0 | 23.0 | 0.00 | 0.00 | 0.00 | 19 | 1016.7 |
| 20260905094533 | 67 | 151 | 10.0 | 24.0 | 0.00 | 0.00 | 0.00 | 19 | 1016.7 |
| 20260905093533 | 67 | 147 | 9.0 | 16.0 | 0.00 | 0.00 | 0.00 | 19 | 1016.7 |
| 20260905092533 | 67 | 148 | 9.0 | 19.0 | 0.00 | 0.00 | 0.00 | 19 | 1016.7 |
| 20260905091534 | 67 | 147 | 6.0 | 21.0 | 0.00 | 0.00 | 0.00 | 19 | 1016.5 |
| 20260905090533 | 67 | 175 | 15.0 | 20.0 | 0.00 | 0.00 | 0.00 | 19 | 1016.5 |
| 20260905085533 | 67 | 138 | 4.0 | 23.0 | 0.00 | 0.00 | 0.00 | 19 | 1016.5 |
| 20260905083534 | 67 | 143 | 11.0 | 17.0 | 0.00 | 0.00 | 0.00 | 19 | 1016.6 |
| 20260905082533 | 67 | 77 | 5.0 | 15.0 | 0.00 | 0.00 | 0.00 | 20 | 1016.6 |
| 20260905081534 | 67 | 97 | 3.0 | 10.0 | 0.00 | 0.00 | 0.00 | 21 | 1016.5 |
| 20260905080534 | 69 | 99 | 4.0 | 15.0 | 0.00 | 0.00 | 0.00 | 20 | 1016.4 |
| 20260905075533 | 69 | 149 | 10.0 | 20.0 | 0.00 | 0.00 | 0.00 | 19 | 1016.4 |
| 20260905074533 | 69 | 169 | 14.0 | 23.0 | 0.00 | 0.00 | 0.00 | 19 | 1016.4 |
| 20260905073534 | 68 | 134 | 4.0 | 16.0 | 0.00 | 0.00 | 0.00 | 20 | 1016.5 |
| 20260905072533 | 69 | 144 | 9.0 | 21.0 | 0.00 | 0.00 | 0.00 | 19 | 1016.4 |
| 20260905065537 | 68 | 150 | 5.0 | 16.0 | 0.00 | 0.00 | 0.00 | 21 | 1016.1 |